SCP
0 0 0 0 0 0 0 0 0 1 1 2 3 3 4 4 5 4 4 4 5 5 5 5 5 6 7 6 5 5 6 6 8 10 12 12 9 6 4 3 3 3 3 3
0 0 0 0 0 0 0 0 1 1 1 2 3 3 4 4 5 6 6 6 6 6 6 5 6 7 8 8 7 6 6 6 7 9 10 9 7 5 4 4 4 3 4 4
0 0 0 0 0 1 1 1 1 2 2 3 3 3 3 4 5 6 7 7 8 8 7 6 7 9 11 10 9 8 7 6 6 6 7 7 6 5 5 5 5 5 5 5
0 0 0 1 1 1 1 1 2 2 2 3 3 3 3 4 4 5 6 7 8 8 7 6 8 10 12 12 12 10 8 6 5 5 5 6 6 5 5 5 6 7 7 8
0 0 1 1 1 1 1 1 2 2 3 4 4 3 3 4 4 5 6 6 7 7 6 6 6 7 9 11 12 12 10 7 5 4 5 5 5 5 5 5 6 7 8 8
0 0 1 1 1 1 1 1 1 3 4 4 3 3 3 3 4 5 6 6 6 5 5 5 5 5 6 8 9 10 10 8 5 5 5 5 5 4 5 5 6 6 6 6
0 0 1 1 1 1 1 1 2 3 4 4 3 3 3 3 4 5 6 7 6 5 4 5 5 6 7 8 7 7 7 6 5 5 5 5 4 4 5 5 5 4 4 4
0 1 1 1 1 1 2 2 3 4 5 4 4 4 3 4 4 5 6 7 7 6 5 5 6 6 7 8 7 6 5 5 5 5 5 5 5 5 5 4 4 4 4 4
1 1 2 2 3 3 3 3 3 5 5 4 4 4 4 4 4 5 7 7 7 6 6 6 7 7 8 8 7 7 6 6 5 5 5 5 5 5 5 4 4 4 4 4
2 2 2 3 4 5 5 4 4 4 4 4 3 3 3 4 4 5 7 7 6 6 6 6 8 8 8 7 6 5 5 5 4 4 4 4 4 5 5 5 4 4 4 4
2 2 3 3 4 6 6 5 4 4 4 3 3 3 3 3 3 5 7 7 6 5 5 5 6 7 6 5 5 4 4 4 4 3 3 3 3 3 4 4 4 4 4 3
3 3 3 3 5 6 7 6 5 4 3 3 3 3 3 3 3 3 5 7 6 5 5 5 5 6 6 5 5 4 4 3 3 3 3 2 2 2 2 2 2 2 2 2
3 3 3 3 4 5 5 5 4 3 3 3 3 3 2 2 2 2 3 5 6 5 4 4 5 6 6 6 5 5 4 4 3 2 2 1 1 1 1 0 0 1 1 1
3 3 3 3 4 4 4 4 4 3 3 2 2 2 2 2 2 2 2 3 4 5 4 4 4 5 6 6 6 6 5 4 3 2 1 1 1 1 1 1 1 1 1 1
3 3 3 4 4 3 3 3 3 2 2 2 2 2 2 2 2 2 2 2 3 3 3 3 3 4 5 6 6 6 6 5 4 3 2 1 1 1 1 1 1 1 1 1
2 2 3 3 3 3 3 3 2 2 2 2 2 2 2 2 3 2 2 2 2 3 3 3 3 4 5 5 6 6 6 4 3 3 2 2 1 1 1 1 1 1 1 0
2 2 2 2 2 2 2 2 2 1 1 1 2 2 1 2 2 2 2 1 1 2 3 3 3 3 4 4 5 5 4 3 2 2 2 1 1 1 1 1 1 1 1 0
2 2 2 2 1 1 1 2 2 1 1 1 1 1 1 1 1 1 1 1 1 2 3 3 3 3 3 3 3 3 2 1 1 1 1 1 1 1 1 1 1 1 1 1
1 1 2 2 1 1 1 1 1 1 1 1 1 1 1 1 1 1 1 1 1 2 2 1 1 2 2 1 1 1 1 1 1 1 1 1 1 1 1 1 1 1 1 1
1 1 1 1 1 1 1 1 1 1 1 1 1 1 1 1 1 1 1 1 1 1 1 1 1 1 1 0 0 0 0 1 1 1 1 1 0 0 0 0 0 0 0 1
1 1 1 1 1 1 1 1 1 1 1 1 1 1 1 1 1 1 1 1 1 1 1 0 0 0 0 0 0 0 0 1 1 1 1 1 1 1 1 1 0 0 0 0
2 1 1 1 1 1 1 1 1 1 1 1 1 1 1 1 1 0 0 0 0 0 0 0 0 0 0 0 0 0 0 1 1 1 1 1 1 1 1 1 1 0 0 0
2 1 1 1 1 1 1 1 1 1 1 1 1 1 1 1 1 0 0 0 0 0 0 0 0 0 0 0 0 0 0 1 1 1 1 1 1 1 1 1 1 0 0 0
2 1 1 1 1 1 1 1 1 1 1 1 1 1 1 1 1 0 0 0 0 0 0 0 0 0 0 0 0 0 0 1 1 1 1 1 1 1 1 1 1 1 0 0
2 1 1 1 1 1 1 1 1 1 1 1 1 1 1 1 1 0 0 0 0 0 0 0 0 0 0 0 0 0 0 0 1 1 1 2 2 2 2 2 1 0 0 0
2 1 1 1 0 0 0 0 0 0 0 1 1 1 1 1 0 0 0 0 0 0 0 0 0 0 0 0 0 0 0 0 1 1 1 2 2 2 2 2 1 0 0 0
2 1 1 0 0 0 0 0 0 0 0 0 1 1 1 0 0 0 0 0 0 0 0 0 0 0 0 0 0 0 0 0 1 1 1 2 2 2 2 1 1 0 0 0
Wind_Speed
4 3 8 10 12 13 14 12 11 8 8 6 5 4 3 3 4 5 6 6 5 5 5 4 4 4 4 4 4 4 5 4 4 5 6 5 5 5 5 5 5 4 4 4
7 7 8 9 10 11 12 11 11 9 6 4 4 4 4 4 4 5 6 6 5 5 5 4 4 4 4 4 3 4 4 4 3 4 4 5 5 4 5 4 4 4 4 4
9 9 9 12 10 10 9 8 10 9 6 7 6 5 4 4 4 5 6 5 5 4 4 4 4 4 4 4 3 3 3 3 3 4 4 4 5 5 5 4 4 4 4 3
7 9 13 4 4 7 8 7 6 5 6 7 6 6 5 4 5 6 6 5 5 4 5 5 5 4 3 3 3 3 3 3 3 4 4 4 4 5 4 4 4 3 3 3
8 11 9 6 5 7 8 7 6 5 6 7 8 8 7 5 6 6 5 5 4 4 5 4 4 4 3 3 3 3 2 2 2 3 4 4 4 4 4 4 4 4 4 4
9 11 10 6 7 4 7 9 7 6 7 8 9 8 7 7 6 6 6 5 5 5 5 5 4 4 3 3 3 2 2 2 2 3 3 4 4 3 4 4 4 4 4 4
11 10 5 4 6 7 10 5 7 7 7 7 6 2 9 8 6 6 6 5 5 5 5 4 4 4 3 3 3 2 2 3 3 2 2 3 3 4 4 5 5 5 5 5
10 11 6 6 6 5 2 4 5 6 6 5 6 9 9 8 7 6 6 6 5 5 5 4 3 4 4 4 3 2 3 3 3 3 2 3 4 4 4 4 5 5 5 5
4 1 5 3 2 3 2 3 4 4 5 7 9 9 9 8 7 6 6 5 5 5 5 4 3 3 4 4 3 4 4 4 5 5 5 5 5 5 4 3 3 4 4 4
3 4 4 3 2 2 2 3 3 5 6 8 9 9 8 7 6 5 5 4 4 5 5 4 4 4 4 4 4 5 5 5 6 6 6 6 5 5 4 3 2 3 3 3
5 5 5 4 3 3 4 5 6 6 7 8 9 8 7 6 6 5 4 4 4 4 4 4 4 4 4 4 4 5 6 6 6 6 7 7 7 6 5 6 4 3 2 3
4 5 4 5 4 4 5 6 7 8 8 8 8 8 7 6 5 5 4 4 4 4 4 4 4 4 4 4 4 5 5 5 5 5 5 6 7 8 13 10 12 11 9 5
1 2 2 4 4 4 5 6 7 7 8 8 8 7 7 7 6 5 5 5 4 4 4 4 4 5 4 4 4 5 6 5 4 4 5 5 5 6 7 9 12 12 10 8
2 4 5 5 5 5 6 7 8 8 8 7 7 7 7 7 7 6 5 5 5 5 5 5 5 5 5 4 5 6 6 6 5 4 4 4 4 4 5 5 6 6 7 7
4 4 4 4 5 6 6 8 8 8 8 7 7 7 7 7 7 6 6 5 5 6 5 5 6 5 5 5 6 6 5 4 4 4 4 4 4 4 5 5 5 5 5 5
4 4 6 7 7 6 7 8 8 7 7 7 7 6 6 7 7 6 5 5 5 5 5 5 5 5 4 4 5 5 5 6 4 4 4 4 4 4 4 5 5 4 4 4
5 6 7 8 7 7 7 7 7 7 7 7 7 7 7 7 6 6 6 5 5 5 5 5 5 4 4 4 4 4 4 5 6 4 4 4 4 4 4 4 4 4 4 3
4 4 5 6 6 7 7 7 6 7 6 6 7 6 6 6 6 6 5 5 6 6 5 4 4 3 3 4 3 3 3 3 3 3 3 4 4 3 3 3 4 5 4 4
5 5 5 6 6 6 6 6 6 6 6 6 6 6 6 6 6 6 5 5 5 5 4 4 4 3 4 4 3 3 3 4 4 4 3 4 3 3 3 3 4 4 4 4
5 5 5 6 6 6 6 6 6 6 6 6 6 6 6 6 6 6 5 4 3 3 4 3 3 3 3 4 3 3 4 4 4 4 3 3 3 3 3 4 4 4 4 3
6 6 6 6 6 7 6 6 6 6 6 5 5 6 6 6 5 5 5 5 4 4 4 3 3 3 3 3 2 3 3 4 3 3 3 3 3 3 3 3 3 3 3 3
6 6 6 6 6 6 5 5 5 6 6 5 5 6 7 6 6 5 4 3 4 3 2 3 3 5 4 2 3 4 4 4 3 3 3 3 3 3 3 3 3 3 3 3
5 6 6 6 6 6 6 5 5 5 5 5 6 6 6 5 4 4 4 4 4 4 2 4 6 6 3 2 3 4 4 3 3 3 3 3 3 3 3 3 2 2 3 2
5 6 6 6 6 7 6 6 5 5 5 5 5 5 5 5 4 3 4 6 5 4 4 6 6 4 2 2 3 3 3 3 3 3 3 3 3 2 2 2 3 3 3 3
6 6 6 6 6 5 6 7 6 6 6 5 5 5 4 4 4 4 5 6 6 5 5 6 5 3 2 3 3 3 3 2 2 2 2 2 2 2 2 2 3 2 2 2
6 6 5 5 5 5 5 5 5 5 5 5 4 4 4 4 5 5 5 6 7 5 4 4 4 4 3 3 3 3 3 3 3 2 3 3 3 2 2 3 3 2 2 2
7 6 5 5 5 5 5 5 5 5 5 5 6 5 5 5 5 6 6 5 5 4 4 4 3 3 3 3 4 3 3 3 3 3 3 3 2 2 2 2 2 2 2 2
Wind_Direction
242 198 195 201 203 208 221 233 237 224 217 204 188 162 129 117 109 107 105 103 104 107 107 112 118 122 128 135 147 162 169 178 182 188 181 178 179 181 183 189 192 184 179 179
210 210 205 206 205 211 219 228 233 226 214 173 149 140 135 126 115 109 105 102 99 98 102 107 111 115 115 117 138 156 162 164 163 162 159 162 167 170 174 179 181 172 172 174
207 198 209 213 209 211 213 222 227 224 201 165 165 161 146 131 119 108 102 93 88 88 90 98 101 107 120 126 138 144 147 151 157 156 152 156 162 160 167 169 168 165 163 158
212 202 222 194 198 217 213 216 229 217 178 175 160 136 123 122 119 109 100 95 87 85 87 90 97 104 110 120 129 136 144 149 152 153 149 149 154 156 160 154 150 147 143 140
221 216 215 180 187 205 207 209 204 195 168 151 141 141 132 110 105 103 94 88 87 88 92 90 90 91 101 113 117 120 127 135 137 146 147 148 149 153 151 145 141 135 125 117
222 225 223 185 159 184 216 207 179 181 170 164 177 194 140 119 108 99 90 83 83 87 91 85 79 85 96 98 95 91 92 105 119 139 154 155 147 147 141 136 127 121 109 100
222 225 211 126 146 187 216 186 158 180 177 180 188 96 112 121 110 100 94 89 84 82 80 80 88 97 100 87 73 63 74 88 97 110 132 135 125 123 126 125 118 112 105 96
219 224 194 128 174 203 39 79 151 169 172 162 120 113 121 120 115 110 103 96 91 88 80 74 83 101 100 86 77 72 68 79 85 88 93 110 114 116 120 123 121 119 111 98
224 197 80 130 110 50 53 132 141 156 157 145 137 133 128 122 117 108 100 95 91 92 87 78 72 85 99 89 82 87 85 81 81 85 84 84 95 104 108 116 124 126 120 111
178 148 133 122 96 84 103 119 125 138 145 145 138 133 127 121 114 105 97 95 93 90 84 73 65 71 88 96 99 97 88 81 86 86 83 78 73 77 81 83 95 110 111 110
189 155 152 152 125 111 106 112 117 119 123 131 130 129 126 121 112 103 95 86 83 81 78 76 71 75 89 93 97 100 97 93 92 90 90 82 71 56 62 56 47 61 85 102
192 166 180 143 128 126 125 120 120 121 118 119 123 125 124 116 111 106 95 86 85 89 89 86 84 80 82 90 99 105 103 100 98 100 99 101 100 85 62 65 64 56 52 65
5 138 127 141 146 135 128 121 121 122 122 122 120 121 119 115 111 103 95 89 90 92 95 95 91 84 78 87 97 101 101 101 98 100 104 107 110 111 105 86 76 65 61 68
157 150 154 160 149 134 127 123 116 115 115 116 118 116 113 111 109 103 97 92 89 89 89 91 87 80 79 95 103 103 103 103 106 104 103 104 104 104 106 107 101 91 77 76
181 185 168 150 139 132 131 130 127 122 120 118 116 114 113 112 109 106 104 101 96 92 89 88 84 77 75 91 100 103 104 105 101 100 101 101 102 102 101 101 101 101 98 89
160 155 155 154 149 148 150 147 138 131 128 127 122 118 112 110 110 107 105 103 101 91 87 86 83 80 79 89 99 99 97 97 104 109 108 107 105 104 104 104 103 103 104 108
175 174 167 159 156 155 150 144 137 134 132 130 126 123 121 120 115 110 104 98 94 92 91 90 87 86 88 92 99 102 103 105 110 107 101 101 101 102 104 108 111 112 109 97
189 187 178 166 162 155 146 139 137 136 133 130 128 129 132 130 126 121 117 112 104 93 81 81 83 91 96 96 95 94 97 97 97 95 98 99 98 103 108 113 118 118 114 115
166 169 166 163 160 152 145 141 138 134 132 132 131 130 128 126 127 128 127 122 115 106 90 82 80 102 101 92 93 107 104 104 101 98 100 110 119 115 113 110 109 108 109 108
155 152 147 145 142 141 138 138 136 132 132 134 133 130 126 126 129 131 127 113 90 87 105 106 114 102 105 107 104 110 108 108 107 107 109 108 107 112 112 111 113 110 107 109
151 149 144 138 134 133 135 139 140 138 139 142 142 135 132 131 133 135 134 119 104 98 109 123 130 123 114 104 122 116 111 110 111 112 112 107 105 104 106 111 115 117 117 116
154 151 147 139 135 132 132 135 137 138 136 137 138 138 138 139 138 131 115 108 117 117 138 131 115 91 88 103 115 112 114 115 115 113 110 108 109 108 108 111 113 115 113 108
150 148 147 144 141 136 135 135 136 138 138 141 143 144 143 139 143 143 131 119 119 113 115 96 91 93 92 123 116 119 117 114 111 111 113 114 113 115 120 122 116 111 106 105
150 150 148 145 141 140 142 139 134 130 129 133 135 137 141 141 134 120 109 111 106 113 106 101 108 113 141 132 122 118 116 114 112 112 113 114 118 121 120 118 112 106 101 97
155 154 153 153 153 151 146 143 141 137 137 134 134 136 141 138 134 123 119 120 123 128 120 118 128 145 159 127 120 116 112 100 96 101 111 114 116 114 114 113 109 108 104 102
155 158 158 162 155 151 152 153 152 149 147 140 136 134 131 129 130 131 131 134 130 127 131 135 140 156 140 121 117 116 118 123 127 122 108 105 106 108 108 107 109 105 104 104
150 152 156 155 153 155 153 156 155 154 152 147 139 139 140 138 136 134 135 136 137 139 136 137 138 138 128 121 117 118 121 121 118 116 121 122 119 111 108 111 111 110 115 111